Date String (YYYY-MM-DD hh:mm:ss) UTC,Instrument flags,absolute air pressure of the measurement (hPa),sample flow rate (lpm),inlet stack bypass flow (lpm),air temperature of the measurement (°C),ambient temperature measured by the external sensor (°C),aerosol sample conditioner tube jacket temperature (°C),OPC LED temperature (°C),internal box temperature (°C),relative humidity of the measurement (%),span deviation,mass concentration of particles derived from Lorenz-Mie calculation of OPC scattering (μg/m³),mass concentration of particles derived from Lorenz-Mie calculation of OPC scattering (μg/m³),mass concentration of particles derived from Lorenz-Mie calculation of OPC scattering (μg/m³)
DateTimeUTC,F1_M11,P_M11,Q1_M11,Q2_M11,T1_M11,T2_M11,T3_M11,T4_M11,T5_M11,U1_M11,ZSPAN_M11,X0_M11,X2_M11,X1_M11
2023-12-16 15:00:00,SystemResetWarning,0832.7,5.00,000.00,019.1,018.2,000.0,027.3,020.3,11.5,0000.0,0004.46,0001.10,0000.88
2023-12-16 15:01:00,SystemResetWarning,0832.7,4.99,000.00,019.1,018.2,000.0,027.3,020.3,11.3,0000.0,0002.77,0001.10,0000.87
2023-12-16 15:02:00,SystemResetWarning,0832.7,4.99,000.00,019.1,018.3,000.0,027.3,020.3,10.8,0000.0,0002.61,0001.07,0000.87
2023-12-16 15:03:00,SystemResetWarning,0832.7,5.01,000.00,019.1,018.3,000.0,027.3,020.3,10.8,0000.0,0003.16,0001.06,0000.88
2023-12-16 15:04:00,SystemResetWarning,0832.7,5.01,000.00,019.1,018.3,000.0,027.3,020.3,10.7,0000.0,0003.21,0001.07,0000.87
2023-12-16 15:05:00,SystemResetWarning,0832.7,5.01,000.00,019.1,018.3,000.0,027.3,020.4,10.6,0000.0,0003.19,0001.06,0000.88
2023-12-16 15:06:00,SystemResetWarning,0832.7,5.00,000.00,019.1,018.3,000.0,027.3,020.4,10.8,0000.0,0003.22,0001.06,0000.88
2023-12-16 15:07:00,SystemResetWarning,0832.7,4.99,000.00,019.1,018.3,000.0,027.3,020.4,11.2,0000.0,0002.97,0001.06,0000.87
2023-12-16 15:08:00,SystemResetWarning,0832.7,4.99,000.00,019.1,018.3,000.0,027.3,020.4,11.5,0000.0,0002.17,0001.06,0000.86
2023-12-16 15:09:00,SystemResetWarning,0832.7,4.99,000.00,019.1,018.4,000.0,027.3,020.4,11.5,0000.0,0002.18,0001.07,0000.86
2023-12-16 15:10:00,SystemResetWarning,0832.6,5.01,000.00,019.1,018.4,000.0,027.3,020.4,10.8,0000.0,0002.24,0001.09,0000.87
2023-12-16 15:11:00,SystemResetWarning,0832.7,5.01,000.00,019.1,018.4,000.0,027.3,020.4,10.5,0000.0,0002.23,0001.07,0000.86
2023-12-16 15:12:00,SystemResetWarning,0832.7,5.00,000.00,019.1,018.4,000.0,027.4,020.4,10.4,0000.0,0002.25,0001.08,0000.88
2023-12-16 15:13:00,SystemResetWarning,0832.7,4.99,000.00,019.2,018.4,000.0,027.4,020.4,10.5,0000.0,0002.35,0001.12,0000.87
2023-12-16 15:14:00,SystemResetWarning,0832.7,5.00,000.00,019.2,018.4,000.0,027.4,020.5,11.3,0000.0,0001.73,0001.08,0000.87
2023-12-16 15:15:00,SystemResetWarning,0832.7,5.01,000.00,019.2,018.5,000.0,027.4,020.5,11.3,0000.0,0001.65,0001.08,0000.87
2023-12-16 15:16:00,SystemResetWarning,0832.7,5.01,000.00,019.2,018.5,000.0,027.4,020.5,11.6,0000.0,0001.75,0001.10,0000.87
2023-12-16 15:17:00,SystemResetWarning,0832.7,5.01,000.00,019.2,018.5,000.0,027.4,020.5,11.6,0000.0,0002.07,0001.10,0000.86
2023-12-16 15:18:00,SystemResetWarning,0832.7,5.00,000.00,019.2,018.5,000.0,027.4,020.5,11.7,0000.0,0001.98,0001.10,0000.86
2023-12-16 15:19:00,SystemResetWarning,0832.6,4.99,000.00,019.2,018.5,000.0,027.4,020.6,10.6,0000.0,0001.96,0001.08,0000.87
2023-12-16 15:20:00,SystemResetWarning,0832.7,5.00,000.00,019.2,018.6,000.0,027.4,020.6,10.4,0000.0,0002.05,0001.10,0000.88
2023-12-16 15:21:00,SystemResetWarning,0832.7,5.00,000.00,019.2,018.6,000.0,027.4,020.6,10.8,0000.0,0002.09,0001.09,0000.88
2023-12-16 15:22:00,SystemResetWarning,0832.7,4.99,000.00,019.3,018.6,000.0,027.4,020.6,11.5,0000.0,0002.10,0001.09,0000.88
2023-12-16 15:23:00,SystemResetWarning,0832.7,5.01,000.00,019.3,018.6,000.0,027.5,020.6,10.7,0000.0,0002.15,0001.09,0000.87
2023-12-16 15:24:00,SystemResetWarning,0832.8,5.01,000.00,019.3,018.6,000.0,027.5,020.6,10.5,0000.0,0002.31,0001.07,0000.87
2023-12-16 15:25:00,SystemResetWarning,0832.7,5.01,000.00,019.3,018.6,000.0,027.5,020.6,10.5,0000.0,0002.82,0001.09,0000.88
2023-12-16 15:26:00,SystemResetWarning,0832.7,5.01,000.00,019.3,018.7,000.0,027.5,020.6,10.9,0000.0,0002.76,0001.06,0000.87
2023-12-16 15:27:00,SystemResetWarning,0832.7,5.01,000.00,019.3,018.7,000.0,027.5,020.6,10.8,0000.0,0002.72,0001.04,0000.87
2023-12-16 15:28:00,SystemResetWarning,0832.9,5.00,000.00,019.3,018.7,000.0,027.5,020.7,10.5,0000.0,0002.35,0001.04,0000.87
2023-12-16 15:29:00,SystemResetWarning,0832.7,5.00,000.00,019.4,018.7,000.0,027.5,020.7,10.8,0000.0,0002.34,0001.04,0000.86
2023-12-16 15:30:00,SystemResetWarning,0832.7,5.00,000.00,019.4,018.7,000.0,027.5,020.7,10.8,0000.0,0002.35,0001.04,0000.86
2023-12-16 15:31:00,SystemResetWarning,0832.7,5.00,000.00,019.4,018.7,000.0,027.6,020.7,10.6,0000.0,0002.30,0001.04,0000.86
2023-12-16 15:32:00,SystemResetWarning,0832.8,4.99,000.00,019.4,018.7,000.0,027.6,020.7,10.6,0000.0,0002.18,0001.03,0000.87
2023-12-16 15:33:00,SystemResetWarning,0832.7,5.00,000.00,019.4,018.8,000.0,027.6,020.8,11.2,0000.0,0002.18,0001.04,0000.86
2023-12-16 15:34:00,SystemResetWarning,0832.7,5.00,000.00,019.4,018.8,000.0,027.6,020.8,11.0,0000.0,0002.07,0001.03,0000.87
2023-12-16 15:35:00,SystemResetWarning,0832.8,5.01,000.00,019.4,018.8,000.0,027.6,020.8,11.1,0000.0,0003.02,0001.04,0000.88
2023-12-16 15:36:00,SystemResetWarning,0832.7,5.01,000.00,019.4,018.8,000.0,027.6,020.8,10.8,0000.0,0002.85,0001.07,0000.88
2023-12-16 15:37:00,SystemResetWarning,0832.7,5.01,000.00,019.5,018.8,000.0,027.6,020.8,10.8,0000.0,0002.83,0001.07,0000.89
2023-12-16 15:38:00,SystemResetWarning,0832.7,4.99,000.00,019.5,018.8,000.0,027.6,020.8,11.2,0000.0,0002.94,0001.08,0000.89
2023-12-16 15:39:00,SystemResetWarning,0832.8,4.99,000.00,019.5,018.9,000.0,027.7,020.8,11.3,0000.0,0002.96,0001.08,0000.88
2023-12-16 15:40:00,SystemResetWarning,0832.8,5.00,000.00,019.5,018.9,000.0,027.7,020.9,11.4,0000.0,0003.03,0001.09,0000.89
2023-12-16 15:41:00,SystemResetWarning,0832.7,5.00,000.00,019.5,018.9,000.0,027.7,020.9,11.3,0000.0,0003.15,0001.10,0000.89
2023-12-16 15:42:00,SystemResetWarning,0832.7,5.00,000.00,019.5,018.9,000.0,027.7,020.9,11.0,0000.0,0003.16,0001.10,0000.89
2023-12-16 15:43:00,SystemResetWarning,0832.8,5.00,000.00,019.5,019.0,000.0,027.7,020.9,10.8,0000.0,0003.18,0001.10,0000.88
2023-12-16 15:44:00,SystemResetWarning,0832.7,5.00,000.00,019.6,019.0,000.0,027.7,020.9,10.9,0000.0,0003.17,0001.10,0000.88
2023-12-16 15:45:00,SystemResetWarning,0832.7,5.00,000.00,019.6,019.0,000.0,027.7,020.9,11.5,0000.0,0003.20,0001.12,0000.89
2023-12-16 15:46:00,SystemResetWarning,0832.7,5.00,000.00,019.6,019.0,000.0,027.7,021.0,11.8,0000.0,0002.54,0001.10,0000.88
2023-12-16 15:47:00,SystemResetWarning,0832.7,5.00,000.00,019.6,019.0,000.0,027.8,021.0,12.0,0000.0,0001.76,0001.07,0000.87
2023-12-16 15:48:00,SystemResetWarning,0832.7,5.00,000.00,019.6,019.0,000.0,027.8,021.0,12.2,0000.0,0001.73,0001.05,0000.87
2023-12-16 15:49:00,SystemResetWarning,0832.8,5.00,000.00,019.6,019.0,000.0,027.8,021.0,12.1,0000.0,0001.63,0001.04,0000.86
2023-12-16 15:50:00,SystemResetWarning,0832.7,5.01,000.00,019.6,019.0,000.0,027.8,021.0,12.7,0000.0,0001.56,0001.04,0000.87
2023-12-16 15:51:00,SystemResetWarning,0832.7,4.99,000.00,019.7,019.1,000.0,027.8,021.0,12.6,0000.0,0001.46,0001.02,0000.89
2023-12-16 15:52:00,SystemResetWarning,0832.7,5.00,000.00,019.7,019.1,000.0,027.8,021.0,11.8,0000.0,0001.52,0001.04,0000.90
2023-12-16 15:53:00,SystemResetWarning,0832.7,5.00,000.00,019.7,019.1,000.0,027.8,021.0,11.9,0000.0,0001.69,0001.04,0000.91
2023-12-16 15:54:00,SystemResetWarning,0832.7,5.00,000.00,019.7,019.1,000.0,027.9,021.1,11.4,0000.0,0001.66,0001.04,0000.92
2023-12-16 15:55:00,SystemResetWarning,0832.7,5.00,000.00,019.7,019.2,000.0,027.9,021.1,11.2,0000.0,0001.66,0001.05,0000.92
2023-12-16 15:56:00,SystemResetWarning,0832.7,5.00,000.00,019.7,019.2,000.0,027.9,021.1,10.7,0000.0,0001.72,0001.07,0000.93
2023-12-16 15:57:00,SystemResetWarning,0832.7,5.00,000.00,019.8,019.2,000.0,027.9,021.1,10.5,0000.0,0001.83,0001.10,0000.94
2023-12-16 15:58:00,SystemResetWarning,0832.7,4.99,000.00,019.8,019.2,000.0,027.9,021.1,10.5,0000.0,0001.88,0001.13,0000.94
2023-12-16 15:59:00,SystemResetWarning,0832.7,5.00,000.00,019.8,019.2,000.0,027.9,021.2,10.9,0000.0,0001.95,0001.15,0000.94
